TimeMST,TemperatureF,Dew PointF,Humidity,Sea Level PressureIn,VisibilityMPH,Wind Direction,Wind SpeedMPH,Gust SpeedMPH,PrecipitationIn,Events,Conditions,WindDirDegrees,DateUTC
12:53 AM,28.9,21.9,75,30.49,10.0,SSE,8.1,-,N/A,,Clear,160,2013-03-02 07:53:00
1:53 AM,27.0,21.0,78,30.49,10.0,SSE,8.1,-,N/A,,Clear,160,2013-03-02 08:53:00
2:53 AM,26.1,21.0,81,30.48,10.0,SSE,4.6,-,N/A,,Clear,150,2013-03-02 09:53:00
3:53 AM,26.1,19.9,78,30.48,10.0,SE,6.9,-,N/A,,Clear,140,2013-03-02 10:53:00
4:53 AM,26.1,19.0,75,30.49,10.0,SSE,6.9,-,N/A,,Clear,160,2013-03-02 11:53:00
5:53 AM,25.0,19.0,78,30.50,10.0,SE,6.9,-,N/A,,Clear,140,2013-03-02 12:53:00
6:53 AM,24.1,18.0,77,30.55,10.0,SSE,6.9,-,N/A,,Clear,160,2013-03-02 13:53:00
7:53 AM,28.0,19.0,69,30.55,10.0,SSE,6.9,-,N/A,,Clear,160,2013-03-02 14:53:00
8:53 AM,33.1,21.0,61,30.54,10.0,South,5.8,-,N/A,,Clear,170,2013-03-02 15:53:00
9:53 AM,37.9,21.0,51,30.50,10.0,Calm,Calm,-,N/A,,Clear,0,2013-03-02 16:53:00
10:53 AM,43.0,23.0,45,30.45,10.0,Calm,Calm,-,N/A,,Clear,0,2013-03-02 17:53:00
11:53 AM,45.0,24.1,44,30.42,10.0,Calm,Calm,-,N/A,,Clear,0,2013-03-02 18:53:00
12:53 PM,48.9,26.1,41,30.37,10.0,ENE,3.5,-,N/A,,Clear,60,2013-03-02 19:53:00
1:53 PM,51.1,27.0,39,30.33,10.0,North,4.6,-,N/A,,Clear,10,2013-03-02 20:53:00
2:53 PM,53.1,25.0,34,30.29,10.0,Calm,Calm,-,N/A,,Clear,0,2013-03-02 21:53:00
3:53 PM,53.1,25.0,34,30.26,10.0,ENE,4.6,-,N/A,,Clear,70,2013-03-02 22:53:00
4:53 PM,54.0,24.1,31,30.25,10.0,Calm,Calm,-,N/A,,Clear,0,2013-03-02 23:53:00
6:53 PM,42.1,30.0,62,30.29,10.0,ESE,6.9,-,N/A,,Clear,120,2013-03-03 01:53:00
7:53 PM,39.0,30.0,70,30.27,10.0,SE,8.1,-,N/A,,Clear,140,2013-03-03 02:53:00
8:53 PM,39.0,28.0,65,30.26,10.0,SSE,10.4,-,N/A,,Clear,160,2013-03-03 03:53:00
9:53 PM,37.0,27.0,67,30.23,10.0,SE,10.4,-,N/A,,Clear,140,2013-03-03 04:53:00
10:53 PM,36.0,26.1,67,30.19,10.0,SE,10.4,-,N/A,,Clear,140,2013-03-03 05:53:00
11:53 PM,33.1,27.0,78,30.17,10.0,SSE,5.8,-,N/A,,Clear,150,2013-03-03 06:53:00